period_start,C,m1,H,J0,J1,J2,J3,J4,J5,JA,JB,JC,JD,JJ,JK,JN,#
2017-07-08 00:01:30,0.04,0.09,0.00,22.74,26.66,29.32,13.99,44.13,1023.04,2036.02,3508.07,3077.30,3528.17,600.00,600.49,26.37,0000 0000 0000 0000 000000
2017-07-08 00:06:31,0.00,0.09,0.00,22.78,26.69,29.33,14.03,44.26,1023.02,2036.00,3508.00,3077.02,3528.00,600.13,600.36,26.42,0000 0000 0000 0000 000000
2017-07-08 00:11:32,0.00,0.09,0.00,22.83,26.72,29.35,13.93,44.17,1023.05,2036.00,3507.82,3076.98,3527.79,599.87,600.08,26.47,0000 0000 0000 0000 000000
2017-07-08 00:16:34,0.04,0.09,0.00,22.88,26.75,29.36,14.01,44.29,1023.01,2035.98,3507.10,3076.47,3527.06,600.08,600.10,26.52,0000 0000 0000 0000 000000
2017-07-08 00:21:35,0.00,0.09,0.00,22.91,26.78,29.36,13.93,44.18,1022.98,2035.93,3507.00,3076.05,3526.99,600.10,600.07,26.57,0000 0000 0000 0000 000000
2017-07-08 00:26:36,-0.02,0.09,0.00,22.96,26.82,29.38,13.94,43.99,1022.99,2035.61,3506.70,3075.99,3526.60,599.95,599.92,26.62,0000 0000 0000 0000 000000
2017-07-08 00:31:37,-0.00,0.09,0.00,23.00,26.85,29.40,13.97,44.09,1023.01,2035.13,3506.08,3075.63,3526.02,600.02,599.82,26.67,0000 0000 0000 0000 000000
2017-07-08 00:36:38,0.00,0.09,0.00,23.05,26.89,29.44,14.00,44.04,1023.13,2035.01,3506.00,3075.03,3525.92,600.19,599.94,26.72,0000 0000 0000 0000 000000
2017-07-08 00:41:39,0.01,0.09,0.00,23.10,26.92,29.48,13.91,44.11,1023.28,2035.00,3505.87,3075.00,3525.16,599.96,599.67,26.77,0000 0000 0000 0000 000000
2017-07-08 00:46:41,0.01,0.09,0.00,23.16,26.96,29.53,13.91,44.14,1023.11,2034.98,3505.19,3074.83,3525.00,599.72,599.40,26.82,0000 0000 0000 0000 000000
2017-07-08 00:51:42,0.01,0.09,0.00,23.19,27.00,29.56,13.97,44.21,1023.23,2034.85,3505.00,3074.13,3524.67,600.08,599.60,26.87,0000 0000 0000 0000 000000
2017-07-08 00:56:43,-0.03,0.09,0.00,23.23,27.03,29.60,13.95,44.21,1023.33,2034.50,3504.90,3074.00,3524.06,600.17,599.65,26.92,0000 0000 0000 0000 000000
2017-07-08 01:01:45,-0.01,0.09,0.00,23.28,27.07,29.64,13.91,44.20,1023.36,2034.04,3504.23,3073.95,3523.97,600.08,599.60,26.97,0000 0000 0000 0000 000000
2017-07-08 01:06:46,0.03,0.09,0.00,23.33,27.11,29.67,13.87,44.27,1023.35,2034.00,3504.00,3073.20,3523.33,599.79,599.12,27.02,0000 0000 0000 0000 000000
2017-07-08 01:11:48,0.00,0.09,0.00,23.37,27.15,29.72,13.91,44.22,1023.42,2034.00,3503.77,3073.00,3523.01,600.08,599.41,27.07,0000 0000 0000 0000 000000
2017-07-08 01:16:49,0.01,0.09,0.00,23.42,27.19,29.76,13.97,44.22,1023.45,2033.98,3503.07,3072.95,3522.81,600.21,599.47,27.12,0000 0000 0000 0000 000000
2017-07-08 01:21:50,0.02,0.09,0.00,23.47,27.23,29.79,13.99,44.25,1023.45,2033.82,3502.99,3072.25,3522.08,600.34,599.41,27.17,0000 0000 0000 0000 000000
2017-07-08 01:26:52,-0.05,0.09,0.00,23.51,27.27,29.83,13.91,44.26,1023.45,2033.20,3502.65,3072.00,3521.95,600.00,599.00,27.22,0000 0000 0000 0000 000000
2017-07-08 01:31:53,0.01,0.09,0.00,23.56,27.31,29.87,13.97,44.25,1023.45,2033.00,3502.02,3071.88,3521.27,600.26,599.17,27.27,0000 0000 0000 0000 000000
2017-07-08 01:36:54,0.02,0.09,0.00,23.60,27.36,29.91,13.94,44.23,1023.45,2033.00,3501.91,3071.17,3520.99,599.84,598.67,27.32,0000 0000 0000 0000 000000
2017-07-08 01:41:56,0.02,0.09,0.00,23.66,27.40,29.95,13.92,44.23,1023.45,2032.98,3501.12,3071.00,3520.38,599.96,598.62,27.37,0000 0000 0000 0000 000000
2017-07-08 01:46:57,-0.04,0.09,0.00,23.70,27.44,30.00,13.91,44.18,1023.45,2032.56,3500.97,3070.73,3520.00,600.23,598.81,27.42,0000 0000 0000 0000 000000
2017-07-08 01:51:58,0.01,0.09,0.00,23.75,27.49,30.04,13.88,44.17,1023.45,2032.10,3500.32,3070.07,3519.76,599.72,598.24,27.47,0000 0000 0000 0000 000000
2017-07-08 01:56:59,0.01,0.09,0.00,23.80,27.53,30.08,13.94,44.27,1023.45,2032.02,3499.98,3069.98,3519.04,600.21,598.63,27.53,0000 0000 0000 0000 000000
2017-07-08 02:02:00,0.04,0.09,0.00,23.85,27.58,30.12,13.91,44.32,1023.47,2032.00,3499.29,3069.32,3518.91,599.90,598.16,27.58,0000 0000 0000 0000 000000
2017-07-08 02:07:01,0.01,0.10,0.00,23.89,27.62,30.16,13.82,44.08,1023.47,2032.00,3498.96,3069.00,3518.14,599.92,598.26,27.63,0000 0000 0000 0000 000000
2017-07-08 02:12:02,0.02,0.10,0.00,23.94,27.67,30.21,13.92,44.09,1023.46,2031.95,3498.51,3068.75,3517.88,599.92,598.20,27.68,0000 0000 0000 0000 000000
2017-07-08 02:17:03,-0.04,0.10,0.00,23.99,27.71,30.25,13.97,44.30,1023.47,2031.40,3498.01,3068.06,3517.14,600.13,598.18,27.73,0000 0000 0000 0000 000000
2017-07-08 02:22:05,0.01,0.09,0.00,24.03,27.76,30.30,13.88,44.60,1023.46,2031.01,3497.36,3067.85,3516.82,600.19,598.05,27.78,0000 0000 0000 0000 000000
2017-07-08 02:27:06,0.03,0.10,0.00,24.09,27.80,30.34,13.95,44.54,1023.47,2031.00,3496.99,3067.08,3516.08,600.03,597.84,27.83,0000 0000 0000 0000 000000
2017-07-08 02:32:07,0.01,0.10,0.00,24.13,27.85,30.38,13.94,44.38,1023.48,2030.98,3496.41,3066.99,3515.86,600.02,597.83,27.88,0000 0000 0000 0000 000000
2017-07-08 02:37:08,-0.01,0.10,0.00,24.18,27.89,30.42,13.91,44.27,1023.47,2030.76,3496.00,3066.41,3515.10,599.78,597.44,27.93,0000 0000 0000 0000 000000
2017-07-08 02:42:10,-0.02,0.10,0.00,24.22,27.94,30.48,13.87,44.36,1023.48,2030.20,3495.67,3066.02,3514.97,599.62,597.25,27.98,0000 0000 0000 0000 000000
2017-07-08 02:47:11,0.02,0.10,0.00,24.27,27.99,30.52,13.92,44.52,1023.47,2030.01,3495.04,3065.69,3514.19,600.03,597.43,28.03,0000 0000 0000 0000 000000
2017-07-08 02:52:13,0.02,0.10,0.00,24.32,28.03,30.57,13.89,44.28,1023.49,2030.00,3494.61,3065.06,3513.84,599.92,597.33,28.08,0000 0000 0000 0000 000000
2017-07-08 02:57:14,0.02,0.10,0.00,24.36,28.08,30.60,13.92,44.42,1023.48,2029.99,3494.00,3064.88,3513.07,600.07,597.39,28.13,0000 0000 0000 0000 000000
2017-07-08 03:02:15,0.02,0.10,0.00,24.41,28.12,30.66,13.90,44.34,1023.48,2029.94,3493.34,3064.13,3512.93,599.56,596.93,28.18,0000 0000 0000 0000 000000
2017-07-08 03:07:16,-0.01,0.10,0.00,24.45,28.17,30.70,13.90,44.27,1023.49,2029.72,3493.00,3064.00,3512.18,599.81,596.95,28.23,0000 0000 0000 0000 000000
2017-07-08 03:12:18,-0.03,0.10,0.00,24.50,28.21,30.75,13.94,44.28,1023.55,2029.14,3492.68,3063.67,3511.98,600.05,597.23,28.28,0000 0000 0000 0000 000000
2017-07-08 03:17:19,0.02,0.10,0.00,24.55,28.26,30.80,13.84,44.40,1023.49,2029.01,3492.05,3063.06,3511.35,599.63,596.53,28.33,0000 0000 0000 0000 000000
2017-07-08 03:22:20,0.00,0.10,0.00,24.60,28.30,30.84,13.89,44.38,1023.47,2029.00,3491.94,3062.98,3510.99,599.86,596.73,28.38,0000 0000 0000 0000 000000
2017-07-08 03:27:21,0.04,0.10,0.00,24.64,28.35,30.89,13.91,44.30,1023.45,2028.95,3491.29,3062.36,3510.47,600.33,597.08,28.43,0000 0000 0000 0000 000000
2017-07-08 03:32:23,-0.05,0.10,0.00,24.68,28.40,30.94,13.87,44.29,1023.45,2028.46,3490.97,3062.00,3510.00,600.04,596.77,28.48,0000 0000 0000 0000 000000
2017-07-08 03:37:24,0.02,0.10,0.00,24.72,28.44,30.99,13.95,44.27,1023.45,2028.04,3490.42,3061.66,3509.42,600.27,596.84,28.53,0000 0000 0000 0000 000000
2017-07-08 03:42:26,0.01,0.10,0.00,24.77,28.49,31.04,13.86,44.33,1023.45,2028.00,3490.00,3061.04,3509.01,599.87,596.27,28.58,0000 0000 0000 0000 000000
2017-07-08 03:47:27,0.01,0.10,0.00,24.81,28.53,31.08,13.82,44.26,1023.45,2028.00,3489.61,3060.99,3508.69,599.85,596.25,28.63,0000 0000 0000 0000 000000
2017-07-08 03:52:28,0.03,0.10,0.00,24.86,28.58,31.12,13.88,44.18,1023.44,2027.95,3489.03,3060.32,3508.04,599.70,595.99,28.68,0000 0000 0000 0000 000000
2017-07-08 03:57:30,-0.03,0.10,0.00,24.90,28.62,31.16,13.96,44.19,1023.34,2027.57,3488.83,3060.00,3507.74,600.18,596.14,28.73,0000 0000 0000 0000 000000
2017-07-08 04:02:31,-0.00,0.10,0.00,24.94,28.67,31.22,13.87,44.20,1023.31,2027.11,3488.11,3059.71,3507.07,600.03,596.18,28.78,0000 0000 0000 0000 000000
2017-07-08 04:07:32,0.01,0.10,0.00,24.98,28.71,31.26,13.86,44.14,1023.32,2027.01,3487.93,3059.09,3506.79,599.89,595.91,28.83,0000 0000 0000 0000 000000
2017-07-08 04:12:33,0.02,0.10,0.00,25.02,28.76,31.31,13.89,44.05,1023.40,2026.99,3487.19,3058.88,3506.06,600.20,596.08,28.88,0000 0000 0000 0000 000000
2017-07-08 04:17:35,0.04,0.11,0.00,25.06,28.80,31.35,13.89,44.20,1023.44,2026.96,3486.54,3058.08,3505.35,600.22,596.09,28.93,0000 0000 0000 0000 000000
2017-07-08 04:22:36,-0.05,0.11,0.00,25.09,28.84,31.40,13.96,44.22,1023.44,2026.51,3486.01,3057.88,3504.99,599.92,595.75,28.98,0000 0000 0000 0000 000000
2017-07-08 04:27:37,0.02,0.10,0.00,25.12,28.89,31.44,13.90,44.12,1023.41,2026.06,3485.64,3057.13,3504.27,600.33,596.08,29.03,0000 0000 0000 0000 000000
2017-07-08 04:32:38,0.00,0.10,0.00,25.15,28.93,31.48,13.94,44.14,1023.43,2026.00,3485.04,3057.00,3504.00,600.14,595.90,29.08,0000 0000 0000 0000 000000
2017-07-08 04:37:40,0.03,0.11,0.00,25.17,28.97,31.53,13.91,44.20,1023.42,2025.99,3484.75,3056.61,3503.52,600.10,595.80,29.13,0000 0000 0000 0000 000000
2017-07-08 04:42:41,0.02,0.11,0.00,25.17,29.01,31.57,13.88,44.21,1023.45,2025.98,3484.03,3056.02,3502.96,600.12,595.72,29.18,0000 0000 0000 0000 000000
2017-07-08 04:47:42,0.01,0.11,0.00,25.17,29.04,31.62,13.84,44.29,1023.45,2025.87,3483.70,3055.87,3502.20,599.95,595.59,29.23,0000 0000 0000 0000 000000
2017-07-08 04:52:43,-0.01,0.11,0.00,25.17,29.08,31.66,13.81,44.19,1023.44,2025.44,3483.06,3055.22,3502.00,599.77,595.46,29.28,0000 0000 0000 0000 000000
2017-07-08 04:57:45,-0.02,0.11,0.00,25.17,29.11,31.69,13.89,44.09,1023.44,2025.12,3482.98,3055.01,3501.85,599.94,595.65,29.33,0000 0000 0000 0000 000000
2017-07-08 05:02:46,0.02,0.11,0.00,25.17,29.13,31.72,13.78,44.13,1023.45,2025.01,3482.31,3054.85,3501.09,599.67,595.35,29.38,0000 0000 0000 0000 000000
2017-07-08 05:07:47,0.02,0.11,0.00,25.17,29.16,31.73,13.86,44.15,1023.42,2025.00,3482.00,3054.12,3500.99,599.70,595.38,29.43,0000 0000 0000 0000 000000
2017-07-08 05:12:49,0.00,0.11,0.00,25.17,29.18,31.74,13.88,44.26,1023.34,2024.99,3481.90,3054.00,3500.63,599.79,595.43,29.48,0000 0000 0000 0000 000000
2017-07-08 05:17:50,0.01,0.11,0.00,25.17,29.20,31.75,13.90,44.13,1023.21,2024.99,3481.38,3053.99,3500.08,600.06,595.49,29.53,0000 0000 0000 0000 000000
2017-07-08 05:22:51,0.04,0.11,0.00,25.20,29.22,31.77,13.81,44.06,1023.05,2024.98,3480.82,3053.16,3499.38,599.90,595.24,29.58,0000 0000 0000 0000 000000
2017-07-08 05:27:52,0.01,0.11,0.00,25.22,29.23,31.78,13.89,44.04,1022.98,2024.90,3480.12,3052.98,3499.00,600.30,595.61,29.63,0000 0000 0000 0000 000000
2017-07-08 05:32:54,-0.02,0.11,0.00,25.22,29.25,31.79,13.88,44.01,1022.98,2024.61,3480.00,3052.81,3498.94,600.08,595.38,29.68,0000 0000 0000 0000 000000
2017-07-08 05:37:55,0.01,0.11,0.00,25.24,29.26,31.79,13.96,44.06,1022.97,2024.27,3479.61,3052.11,3498.23,600.19,595.32,29.73,0000 0000 0000 0000 000000
2017-07-08 05:42:57,0.00,0.11,0.00,25.25,29.27,31.79,13.92,44.13,1022.96,2024.08,3479.09,3052.00,3498.00,600.05,595.27,29.78,0000 0000 0000 0000 000000
2017-07-08 05:47:58,-0.00,0.11,0.00,25.27,29.29,31.79,13.92,44.03,1022.96,2024.03,3479.00,3051.99,3497.98,599.81,595.01,29.83,0000 0000 0000 0000 000000
2017-07-08 05:52:59,0.01,0.11,0.00,25.29,29.30,31.80,13.84,44.09,1022.97,2024.01,3478.90,3051.88,3497.80,600.03,595.20,29.88,0000 0000 0000 0000 000000
2017-07-08 05:58:01,0.04,0.11,0.00,25.31,29.32,31.80,13.82,43.82,1022.96,2024.01,3478.21,3051.23,3497.12,600.22,595.28,29.93,0000 0000 0000 0000 000000
2017-07-08 06:03:02,0.00,0.11,0.00,25.33,29.32,31.80,13.84,44.09,1022.96,2024.00,3478.00,3051.00,3497.00,599.86,594.95,29.98,0000 0000 0000 0000 000000
2017-07-08 06:08:04,0.00,0.11,0.00,25.36,29.34,31.82,13.85,44.14,1022.96,2024.00,3477.98,3051.00,3496.99,600.17,595.20,30.03,0000 0000 0000 0000 000000
2017-07-08 06:13:05,0.02,0.11,0.00,25.37,29.35,31.83,13.80,43.89,1022.96,2024.00,3477.43,3050.94,3496.46,599.80,594.86,30.08,0000 0000 0000 0000 000000
2017-07-08 06:18:07,0.01,0.12,0.00,25.30,29.35,31.87,13.90,44.13,1022.96,2023.99,3477.05,3050.73,3496.08,599.88,595.02,30.13,0000 0000 0000 0000 000000
2017-07-08 06:23:08,0.01,0.12,0.00,25.23,29.37,31.91,13.81,43.98,1022.96,2023.99,3477.00,3050.19,3496.00,599.80,595.07,30.18,0000 0000 0000 0000 000000
2017-07-08 06:28:09,0.00,0.12,0.00,25.22,29.37,31.92,13.87,43.83,1022.94,2023.99,3476.96,3050.05,3496.00,600.04,595.26,30.23,0000 0000 0000 0000 000000
2017-07-08 06:33:10,0.00,0.12,0.00,25.21,29.36,31.91,13.87,44.06,1022.73,2023.99,3476.71,3050.01,3495.98,600.04,595.31,30.28,0000 0000 0000 0000 000000
2017-07-08 06:38:12,0.01,0.12,0.00,25.21,29.35,31.89,13.89,43.83,1022.56,2023.99,3476.11,3050.00,3495.87,599.86,594.95,30.33,0000 0000 0000 0000 000000
2017-07-08 06:43:13,0.01,0.12,0.00,25.22,29.35,31.85,13.82,43.82,1022.56,2023.99,3476.01,3049.98,3495.24,599.58,594.65,30.38,0000 0000 0000 0000 000000
2017-07-08 06:48:14,0.01,0.12,0.00,25.22,29.35,31.84,13.87,43.97,1022.51,2023.99,3475.99,3049.82,3495.03,599.96,595.02,30.43,0000 0000 0000 0000 000000
2017-07-08 06:53:16,0.02,0.12,0.00,25.23,29.33,31.80,13.86,43.94,1022.49,2023.99,3475.74,3049.28,3495.00,599.86,594.81,30.49,0000 0000 0000 0000 000000
2017-07-08 06:58:17,0.00,0.12,0.00,25.25,29.32,31.78,13.85,43.88,1022.49,2023.99,3475.25,3049.06,3494.98,599.70,594.69,30.54,0000 0000 0000 0000 000000
2017-07-08 07:03:18,0.00,0.12,0.00,25.27,29.32,31.75,13.83,43.91,1022.49,2023.99,3475.04,3049.01,3494.94,599.98,595.00,30.59,0000 0000 0000 0000 000000
2017-07-08 07:08:19,0.00,0.12,0.00,25.30,29.32,31.74,13.84,43.85,1022.50,2023.99,3475.00,3049.01,3494.59,599.92,594.75,30.64,0000 0000 0000 0000 000000
2017-07-08 07:13:21,0.00,0.12,0.00,25.32,29.31,31.72,13.89,43.88,1022.49,2023.99,3475.00,3049.00,3494.09,600.25,595.24,30.69,0000 0000 0000 0000 000000
2017-07-08 07:18:22,0.00,0.12,0.00,25.35,29.30,31.70,13.83,43.91,1022.48,2024.00,3474.95,3049.00,3494.02,600.26,595.01,30.74,0000 0000 0000 0000 000000
2017-07-08 07:23:23,0.01,0.12,0.00,25.39,29.30,31.68,13.82,43.89,1022.49,2024.01,3474.58,3048.98,3494.00,600.23,594.85,30.79,0000 0000 0000 0000 000000
2017-07-08 07:28:25,0.02,0.12,0.00,25.43,29.30,31.67,13.81,43.96,1022.48,2024.01,3474.04,3048.64,3493.98,599.88,594.42,30.84,0000 0000 0000 0000 000000
2017-07-08 07:33:26,0.00,0.12,0.00,25.47,29.30,31.66,13.82,43.99,1022.48,2024.02,3474.00,3048.42,3493.97,599.72,594.24,30.89,0000 0000 0000 0000 000000
2017-07-08 07:38:27,0.02,0.12,0.00,25.51,29.30,31.65,13.88,43.88,1022.48,2024.01,3473.75,3048.07,3493.37,600.35,594.78,30.94,0000 0000 0000 0000 000000
2017-07-08 07:43:29,0.02,0.12,0.00,25.56,29.30,31.64,13.84,43.73,1022.48,2024.00,3473.07,3047.83,3492.90,600.27,594.56,30.99,0000 0000 0000 0000 000000
2017-07-08 07:48:30,0.02,0.13,0.00,25.61,29.30,31.63,13.84,43.88,1022.48,2024.02,3472.87,3047.14,3492.21,600.26,594.39,31.04,0000 0000 0000 0000 000000
2017-07-08 07:53:31,0.01,0.13,0.00,25.65,29.32,31.63,13.87,43.73,1022.39,2024.00,3472.23,3047.01,3492.02,600.30,594.47,31.09,0000 0000 0000 0000 000000
2017-07-08 07:58:33,0.00,0.13,0.00,25.70,29.32,31.63,13.80,43.81,1022.20,2024.00,3472.00,3046.99,3491.99,600.11,594.06,31.14,0000 0000 0000 0000 000000
2017-07-08 08:03:34,0.02,0.13,0.00,25.75,29.34,31.64,13.85,43.79,1022.07,2024.00,3471.83,3046.74,3491.55,600.42,594.13,31.19,0000 0000 0000 0000 000000
2017-07-08 08:08:35,0.03,0.13,0.00,25.81,29.35,31.65,13.76,43.89,1022.08,2024.00,3471.05,3046.04,3491.01,599.85,593.42,31.24,0000 0000 0000 0000 000000
2017-07-08 08:13:36,0.01,0.13,0.00,25.86,29.37,31.67,13.82,43.75,1022.02,2024.00,3470.86,3045.97,3490.57,600.47,593.90,31.29,0000 0000 0000 0000 000000
2017-07-08 08:18:37,0.03,0.13,0.00,25.92,29.40,31.68,13.78,43.88,1022.02,2023.99,3470.09,3045.46,3490.02,600.08,593.43,31.34,0000 0000 0000 0000 000000
2017-07-08 08:23:38,0.01,0.13,0.00,25.97,29.41,31.69,13.80,43.84,1022.02,2023.98,3469.98,3045.02,3489.89,600.04,593.30,31.39,0000 0000 0000 0000 000000
2017-07-08 08:28:40,0.01,0.13,0.00,26.03,29.43,31.72,13.81,43.78,1022.09,2023.90,3469.45,3044.95,3489.14,600.37,593.50,31.44,0000 0000 0000 0000 000000
2017-07-08 08:33:41,-0.01,0.13,0.00,26.08,29.46,31.74,13.82,43.89,1022.09,2023.60,3468.88,3044.45,3488.83,599.99,592.98,31.49,0000 0000 0000 0000 000000
2017-07-08 08:38:42,0.01,0.13,0.00,26.13,29.48,31.76,13.82,43.98,1022.25,2023.17,3468.05,3043.56,3487.97,600.32,593.27,31.54,0000 0000 0000 0000 000000
2017-07-08 08:43:44,0.01,0.14,0.00,26.18,29.51,31.79,13.84,43.91,1022.26,2023.01,3467.92,3043.02,3487.19,600.15,593.00,31.59,0000 0000 0000 0000 000000
2017-07-08 08:48:45,0.01,0.14,0.00,26.24,29.53,31.83,13.73,43.88,1022.21,2023.00,3467.22,3042.99,3487.00,599.97,592.76,31.64,0000 0000 0000 0000 000000
2017-07-08 08:53:46,0.02,0.14,0.00,26.30,29.56,31.86,13.76,44.01,1022.28,2023.00,3467.00,3042.72,3486.74,599.77,592.56,31.69,0000 0000 0000 0000 000000
2017-07-08 08:58:48,0.02,0.14,0.00,26.35,29.58,31.89,13.75,44.02,1022.33,2022.98,3466.69,3042.08,3486.05,599.95,592.74,31.74,0000 0000 0000 0000 000000
2017-07-08 09:03:49,-0.01,0.14,0.00,26.40,29.61,31.92,13.75,43.95,1022.36,2022.86,3466.05,3042.00,3485.96,599.96,592.51,31.79,0000 0000 0000 0000 000000
2017-07-08 09:08:50,-0.02,0.14,0.00,26.45,29.64,31.96,13.78,43.88,1022.38,2022.56,3465.89,3041.85,3485.49,599.93,592.42,31.84,0000 0000 0000 0000 000000
2017-07-08 09:13:51,0.00,0.14,0.00,26.51,29.66,31.99,13.83,43.98,1022.47,2022.08,3465.12,3041.11,3485.01,600.18,592.62,31.89,0000 0000 0000 0000 000000
2017-07-08 09:18:53,0.00,0.14,0.00,26.55,29.70,32.03,13.70,43.88,1022.47,2022.00,3464.97,3041.00,3484.83,600.00,592.34,31.94,0000 0000 0000 0000 000000
2017-07-08 09:23:54,0.04,0.14,0.00,26.60,29.73,32.06,13.75,43.87,1022.46,2022.00,3464.21,3040.69,3484.06,599.89,592.10,31.99,0000 0000 0000 0000 000000
2017-07-08 09:28:55,0.01,0.14,0.00,26.64,29.76,32.10,13.81,43.76,1022.42,2022.00,3463.98,3040.06,3483.96,600.10,592.27,32.04,0000 0000 0000 0000 000000
2017-07-08 09:33:56,0.02,0.14,0.00,26.69,29.78,32.14,13.75,43.77,1022.45,2021.99,3463.46,3040.00,3483.35,600.01,592.08,32.09,0000 0000 0000 0000 000000
2017-07-08 09:38:57,0.01,0.14,0.00,26.73,29.81,32.17,13.66,43.64,1022.46,2021.95,3462.98,3039.60,3482.98,599.81,591.87,32.14,0000 0000 0000 0000 000000
2017-07-08 09:43:59,0.00,0.14,0.00,26.78,29.85,32.21,13.70,43.71,1022.31,2021.71,3462.32,3039.03,3482.32,599.98,591.80,32.19,0000 0000 0000 0000 000000
2017-07-08 09:49:00,-0.02,0.14,0.00,26.83,29.88,32.25,13.76,43.59,1022.19,2021.24,3462.00,3038.91,3482.00,599.94,591.47,32.24,0000 0000 0000 0000 000000
2017-07-08 09:54:01,0.15,0.15,0.00,26.88,29.91,32.29,13.75,43.80,1022.11,2021.05,3460.04,3036.80,3479.74,600.22,591.70,32.29,0000 0000 0000 0000 000000
2017-07-08 09:59:03,0.03,0.15,0.00,26.92,29.96,32.34,13.70,43.76,1022.03,2021.00,3458.99,3035.51,3478.06,599.88,591.25,32.34,0000 0000 0000 0000 000000
2017-07-08 10:04:04,0.02,0.15,0.00,26.95,29.99,32.38,13.74,43.77,1022.04,2020.98,3458.32,3035.02,3477.88,600.06,591.27,32.39,0000 0000 0000 0000 000000
2017-07-08 10:09:05,0.01,0.15,0.00,26.97,30.03,32.42,13.77,43.71,1022.00,2020.91,3457.90,3034.84,3477.21,599.98,591.15,32.44,0000 0000 0000 0000 000000
2017-07-08 10:14:06,-0.01,0.15,0.00,27.00,30.07,32.47,13.69,43.73,1022.00,2020.64,3457.11,3034.15,3476.91,599.92,591.07,32.50,0000 0000 0000 0000 000000
2017-07-08 10:19:07,-0.01,0.15,0.00,27.04,30.11,32.50,13.76,43.63,1022.00,2020.16,3456.52,3033.88,3476.15,600.17,591.30,32.55,0000 0000 0000 0000 000000
2017-07-08 10:24:09,0.02,0.15,0.00,27.07,30.15,32.54,13.68,43.50,1021.99,2020.05,3455.98,3033.20,3475.76,599.92,590.80,32.60,0000 0000 0000 0000 000000
2017-07-08 10:29:10,0.02,0.15,0.00,27.12,30.19,32.58,13.74,43.66,1022.01,2020.00,3455.17,3032.88,3475.01,600.13,591.12,32.65,0000 0000 0000 0000 000000
2017-07-08 10:34:12,0.04,0.16,0.00,27.23,30.23,32.61,13.74,43.75,1022.00,2020.00,3454.63,3032.09,3474.31,600.25,590.98,32.70,0000 0000 0000 0000 000000
2017-07-08 10:39:13,0.01,0.16,0.00,27.35,30.27,32.66,13.64,43.43,1022.00,2019.99,3453.97,3031.96,3473.97,599.67,590.14,32.75,0000 0000 0000 0000 000000
2017-07-08 10:44:14,0.04,0.16,0.00,27.47,30.32,32.73,13.73,43.63,1022.00,2019.94,3453.16,3031.23,3473.18,600.70,590.88,32.80,0000 0000 0000 0000 000000
2017-07-08 10:49:16,-0.01,0.16,0.00,27.60,30.37,32.81,13.70,43.62,1022.00,2019.52,3452.43,3030.75,3472.59,599.63,589.64,32.85,0000 0000 0000 0000 000000
2017-07-08 10:54:17,-0.00,0.16,0.00,27.71,30.42,32.91,13.63,43.55,1022.00,2019.11,3451.65,3030.03,3471.91,600.11,589.90,32.90,0000 0000 0000 0000 000000
2017-07-08 10:59:19,0.05,0.16,0.00,27.84,30.47,32.99,13.60,43.48,1021.99,2019.01,3450.44,3029.23,3471.03,599.79,589.15,32.95,0000 0000 0000 0000 000000
2017-07-08 11:04:20,0.01,0.16,0.00,27.95,30.53,33.09,13.66,43.47,1021.99,2018.96,3449.90,3028.90,3470.23,599.79,589.14,33.00,0000 0000 0000 0000 000000
2017-07-08 11:09:21,-0.01,0.16,0.00,28.05,30.59,33.20,13.67,43.45,1021.99,2018.49,3449.10,3028.10,3469.51,600.02,589.13,33.05,0000 0000 0000 0000 000000
2017-07-08 11:14:22,0.01,0.16,0.00,28.13,30.65,33.30,13.65,43.52,1021.99,2018.03,3448.53,3027.76,3468.94,600.29,589.18,33.10,0000 0000 0000 0000 000000
2017-07-08 11:19:23,0.03,0.16,0.00,28.20,30.71,33.36,13.66,43.52,1022.00,2017.99,3447.88,3027.04,3468.11,600.27,589.06,33.15,0000 0000 0000 0000 000000
2017-07-08 11:24:25,0.03,0.16,0.00,28.27,30.77,33.43,13.63,43.55,1022.00,2017.84,3447.05,3026.42,3467.42,599.75,588.35,33.20,0000 0000 0000 0000 000000
2017-07-08 11:29:26,-0.03,0.16,0.00,28.31,30.83,33.49,13.65,43.45,1022.00,2017.37,3446.33,3025.98,3466.91,600.08,588.63,33.25,0000 0000 0000 0000 000000
2017-07-08 11:34:27,0.03,0.16,0.00,28.35,30.88,33.54,13.59,43.38,1022.00,2017.03,3445.73,3025.26,3466.09,599.69,588.35,33.30,0000 0000 0000 0000 000000
2017-07-08 11:39:29,0.02,0.17,0.00,28.35,30.94,33.58,13.61,43.36,1022.00,2016.99,3445.01,3024.96,3465.61,599.94,588.52,33.35,0000 0000 0000 0000 000000
2017-07-08 11:44:30,0.03,0.17,0.00,28.33,30.99,33.60,13.69,43.46,1022.00,2016.93,3444.30,3024.28,3465.00,600.12,588.73,33.40,0000 0000 0000 0000 000000
2017-07-08 11:49:31,-0.03,0.17,0.00,28.30,31.04,33.60,13.72,43.53,1022.00,2016.37,3443.64,3024.00,3464.25,600.46,589.11,33.45,0000 0000 0000 0000 000000
2017-07-08 11:54:33,0.02,0.17,0.00,28.24,31.08,33.62,13.68,43.58,1022.00,2016.07,3442.98,3023.36,3463.88,600.08,588.78,33.50,0000 0000 0000 0000 000000
2017-07-08 11:59:34,0.02,0.17,0.00,28.17,31.12,33.64,13.58,43.43,1021.99,2016.00,3442.14,3022.97,3463.09,599.62,588.53,33.55,0000 0000 0000 0000 000000
2017-07-08 12:04:35,0.02,0.17,0.00,28.10,31.16,33.67,13.69,43.48,1021.99,2016.00,3441.82,3022.38,3462.89,599.90,589.08,33.60,0000 0000 0000 0000 000000
2017-07-08 12:09:36,0.02,0.17,0.00,28.04,31.20,33.69,13.67,43.29,1021.99,2015.99,3441.04,3022.02,3462.12,600.13,589.28,33.65,0000 0000 0000 0000 000000
2017-07-08 12:14:38,0.03,0.17,0.00,27.98,31.23,33.69,13.69,43.50,1021.99,2015.96,3440.20,3021.56,3461.81,599.83,589.06,33.71,0000 0000 0000 0000 000000
2017-07-08 12:19:39,0.01,0.17,0.00,27.93,31.26,33.71,13.63,43.17,1021.99,2015.89,3439.97,3021.02,3461.10,599.43,588.87,33.76,0000 0000 0000 0000 000000
2017-07-08 12:24:40,-0.03,0.17,0.00,27.90,31.28,33.72,13.65,43.42,1021.98,2015.51,3439.19,3020.96,3460.97,600.16,589.50,33.81,0000 0000 0000 0000 000000
2017-07-08 12:29:42,0.02,0.17,0.00,27.88,31.31,33.73,13.65,43.44,1021.98,2015.23,3438.93,3020.35,3460.29,600.11,589.56,33.86,0000 0000 0000 0000 000000
2017-07-08 12:34:43,0.00,0.17,0.00,27.87,31.33,33.74,13.73,43.47,1021.97,2015.01,3438.16,3020.00,3459.98,600.10,589.55,33.91,0000 0000 0000 0000 000000
2017-07-08 12:39:44,0.01,0.17,0.00,27.85,31.35,33.73,13.71,43.43,1021.82,2015.00,3437.94,3019.90,3459.32,599.99,589.59,33.96,0000 0000 0000 0000 000000
2017-07-08 12:44:45,0.03,0.18,0.00,27.85,31.37,33.75,13.75,43.46,1021.55,2014.96,3437.21,3019.15,3459.00,600.35,589.63,34.01,0000 0000 0000 0000 000000
2017-07-08 12:49:47,-0.01,0.17,0.00,27.83,31.38,33.76,13.74,43.43,1021.52,2014.74,3437.00,3019.00,3458.74,600.40,589.60,34.06,0000 0000 0000 0000 000000
2017-07-08 12:54:48,-0.02,0.17,0.00,27.82,31.40,33.77,13.73,43.63,1021.51,2014.26,3436.62,3018.94,3458.06,600.21,589.41,34.11,0000 0000 0000 0000 000000